Pocatello, ID

6:16 PM MDT on March 24, 2017 (GMT -0600)
Pocatello Regional

Weather History for KPIH - October, 2013

Change the Weather History Date:

Monday, October 14, 2013

  Actual Average Record
Temperature  
Mean Temperature 39 °F 48 °F  
Max Temperature 49 °F 62 °F 84 °F (1958)
Min Temperature 29 °F 33 °F 17 °F (1969)
Degree Days  
Heating Degree Days 26 17  
Month to date heating degree days 280 208  
Since 1 July heating degree days 417 457  
Cooling Degree Days 0 0  
Month to date cooling degree days 0 0  
Year to date cooling degree days 688 392  
Moisture  
Dew Point 35 °F    
Average Humidity 79    
Maximum Humidity 93    
Minimum Humidity 65    
Precipitation  
Precipitation 0.01 in 0.03 in 0.41 in (1980)
Month to date precipitation 0.38 0.39  
Year to date precipitation 5.18 9.30  
Snow  
Snow 0.00 in - - ()
Month to date snowfall T  
Since 1 July snowfall T  
Since 1 September snowfall T  
Snow Depth 0.00 in    
Sea Level Pressure  
Sea Level Pressure 30.24 in    
Wind  
Wind Speed 11 mph (SW)    
Max Wind Speed 22 mph    
Max Gust Speed 25 mph    
Visibility 10 miles    
Events Rain    
T = Trace of Precipitation, MM = Missing Value Source: NWS Daily Summary

Daily Weather History Graph

Daily Weather History Graph

Search for Another Location

Airport or City:

Trip Planner

Search our weather history database for the weather conditions in past years. The results will help you decide how hot, cold, wet, or windy it might be!

Date:

Astronomy

Oct. 14, 2013 Rise Set
Actual Time 7:43 AM MDT 6:48 PM MDT
Civil Twilight 7:14 AM MDT 7:17 PM MDT
Nautical Twilight 6:41 AM MDT 7:50 PM MDT
Astronomical Twilight 6:08 AM MDT 8:22 PM MDT
Moon 4:26 PM MDT (10/14) 2:57 AM MDT (10/14)
Length of Visible Light 12h 02m
Length of Day
11h 05m
Waxing Gibbous, 80% of the Moon is Illuminated
Oct 14
Waxing Gibbous
Oct 18
Full
Oct 26
Last Quarter
Nov 3
New
Nov 9
First Quarter

Hourly Weather History & Observations

Time (MDT) Temp. Windchill Dew Point Humidity Pressure Visibility Wind Dir Wind Speed Gust Speed Precip Events Conditions
12:53 AM 39.9 °F 35.8 °F 37.0 °F 89% 30.11 in 10.0 mi SW 5.8 mph - N/A   Mostly Cloudy
1:53 AM 41.0 °F 37.1 °F 39.0 °F 93% 30.11 in 10.0 mi SW 5.8 mph - N/A   Overcast
2:53 AM 39.0 °F 34.0 °F 36.0 °F 89% 30.12 in 10.0 mi SSW 6.9 mph - N/A   Partly Cloudy
3:53 AM 39.0 °F 32.8 °F 36.0 °F 89% 30.12 in 10.0 mi SW 9.2 mph - N/A   Overcast
4:53 AM 39.9 °F 33.4 °F 35.1 °F 83% 30.13 in 10.0 mi SW 10.4 mph - N/A   Overcast
5:53 AM 39.0 °F 31.0 °F 35.1 °F 86% 30.16 in 10.0 mi SW 13.8 mph - N/A   Overcast
6:53 AM 39.0 °F 32.3 °F 34.0 °F 82% 30.18 in 10.0 mi SW 10.4 mph - N/A   Overcast
7:53 AM 37.9 °F 30.5 °F 34.0 °F 86% 30.22 in 10.0 mi SW 11.5 mph - N/A   Overcast
8:53 AM 39.0 °F 31.0 °F 34.0 °F 82% 30.24 in 10.0 mi SW 13.8 mph - N/A   Overcast
9:53 AM 39.0 °F 29.6 °F 34.0 °F 82% 30.25 in 10.0 mi SW 18.4 mph - N/A   Overcast
10:53 AM 39.9 °F 31.1 °F 34.0 °F 79% 30.27 in 10.0 mi WSW 17.3 mph - N/A   Overcast
11:53 AM 41.0 °F 32.5 °F 34.0 °F 76% 30.27 in 10.0 mi SW 17.3 mph - N/A   Overcast
12:53 PM 45.0 °F 37.9 °F 36.0 °F 71% 30.26 in 10.0 mi WSW 16.1 mph - N/A   Mostly Cloudy
1:53 PM 46.9 °F - 36.0 °F 66% 30.24 in 10.0 mi WSW 17.3 mph - N/A   Mostly Cloudy
2:53 PM 46.0 °F 39.6 °F 35.1 °F 66% 30.25 in 10.0 mi WSW 15.0 mph - N/A   Overcast
3:53 PM 44.1 °F 37.7 °F 36.0 °F 73% 30.25 in 10.0 mi West 12.7 mph - 0.00 in Rain Light Rain
4:00 PM 44.6 °F 39.2 °F 37.4 °F 76% 30.25 in 10.0 mi West 10.4 mph - 0.00 in Rain Light Rain
4:36 PM 42.8 °F 37.5 °F 35.6 °F 76% 30.25 in 10.0 mi WSW 9.2 mph - 0.01 in Rain Light Rain
4:53 PM 43.0 °F 36.4 °F 36.0 °F 76% 30.26 in 10.0 mi West 12.7 mph - 0.01 in   Mostly Cloudy
5:53 PM 42.1 °F 38.4 °F 36.0 °F 79% 30.27 in 10.0 mi South 5.8 mph - N/A   Mostly Cloudy
6:53 PM 41.0 °F 34.7 °F 35.1 °F 79% 30.28 in 10.0 mi SSW 10.4 mph - N/A   Mostly Cloudy
7:53 PM 39.0 °F 32.8 °F 35.1 °F 86% 30.30 in 10.0 mi SSW 9.2 mph - 0.00 in   Overcast
8:53 PM 37.9 °F 31.5 °F 34.0 °F 86% 30.30 in 10.0 mi South 9.2 mph - N/A   Mostly Cloudy
9:53 PM 35.1 °F 30.1 °F 32.0 °F 89% 30.33 in 10.0 mi South 5.8 mph - N/A   Clear
10:53 PM 36.0 °F 31.1 °F 30.9 °F 82% 30.33 in 10.0 mi South 5.8 mph - N/A   Clear
11:53 PM 32.0 °F - 30.0 °F 92% 30.33 in 10.0 mi Calm Calm - N/A   Clear